Cuero, Texas, United States (77954)
Lat: 29.09N, Lon: 97.29W
Wx Zone: TXZ224
Local Info
Past Weather Observations for Today

NOTE: This archive is for the closest National Weather Service station to Cuero. Information may differ from the station used for current weather conditions.

Click here for Long-term Archive

Time Weather Temperature Dewpoint Humidity Pressure Winds Precip Visibility
17:51
Clear
93°F / 34°C 70°F / 21°C 47% 30.01 in
(1016 mb)
SSE 13.8 mph
(SSE 22 kph)
- 10SM
16:51
Clear
97°F / 36°C 70°F / 21°C 42% 30.01 in
(1016 mb)
SSE 12.7 mph
(SSE 20 kph)
- 10SM
15:51
Mostly Cloudy
100°F / 38°C 70°F / 21°C 37% 30.01 in
(1016 mb)
ESE 13.8 mph
(ESE 22 kph)
- 10SM
14:51
Clear
99°F / 37°C 68°F / 20°C 37% 30.01 in
(1016 mb)
SE 10.4 mph
(SE 17 kph)
- 10SM
13:51
Clear
99°F / 37°C 64°F / 18°C 33% 30.04 in
(1017 mb)
Variable 3.5 mph
(Variable 6 kph)
- 10SM
12:51
Clear
97°F / 36°C 63°F / 17°C 32% 30.06 in
(1018 mb)
Variable 4.6 mph
(Variable 7 kph)
- 10SM
11:51
Clear
95°F / 35°C 72°F / 22°C 47% 30.06 in
(1018 mb)
Variable 5.8 mph
(Variable 9 kph)
- 10SM
10:51
Clear
91°F / 33°C 72°F / 22°C 52% 30.09 in
(1019 mb)
Variable 3.5 mph
(Variable 6 kph)
- 7SM
09:51
Partly Cloudy
88°F / 31°C 73°F / 23°C 62% 30.12 in
(1020 mb)
SW 6.9 mph
(SW 11 kph)
- 10SM
08:51
Partly Cloudy
84°F / 29°C 75°F / 24°C 74% 30.09 in
(1019 mb)
SSW 4.6 mph
(SSW 7 kph)
- 10SM
08:26
Overcast
82°F / 28°C 75°F / 24°C 79% 30.12 in
(1020 mb)
S 3.5 mph
(S 6 kph)
- 9SM
08:22
Mostly Cloudy
82°F / 28°C 75°F / 24°C 79% 30.09 in
(1019 mb)
Variable 3.5 mph
(Variable 6 kph)
- 8SM
08:15
Mostly Cloudy
81°F / 27°C 77°F / 25°C 89% 30.12 in
(1020 mb)
Calm - 8SM
08:02
Partly Cloudy
81°F / 27°C 77°F / 25°C 89% 30.09 in
(1019 mb)
Calm - 7SM
07:51
Partly Cloudy
Fog And Mist
81°F / 27°C 77°F / 25°C 89% 30.09 in
(1019 mb)
Calm - 6SM
07:14
Mostly Cloudy
Fog And Mist
77°F / 25°C 75°F / 24°C 94% 30.09 in
(1019 mb)
NNE 3.5 mph
(NNE 6 kph)
- 3SM
07:12
Mostly Cloudy
Fog And Mist
77°F / 25°C 75°F / 24°C 94% 30.09 in
(1019 mb)
NNE 3.5 mph
(NNE 6 kph)
- 3SM
06:51
Partly Cloudy
Fog And Mist
75°F / 24°C 75°F / 24°C 100% 30.09 in
(1019 mb)
Calm - 3SM
06:04
Partly Cloudy
Fog And Mist
75°F / 24°C 73°F / 23°C 94% 30.09 in
(1019 mb)
Calm - 3SM
05:57
Partly Cloudy
Fog And Mist
75°F / 24°C 73°F / 23°C 94% 30.06 in
(1018 mb)
Calm - 2SM
05:51
Obscured
Fog And Mist
75°F / 24°C 73°F / 23°C 94% 30.06 in
(1018 mb)
Calm - 1SM
05:33
Clear
Fog And Mist
75°F / 24°C 73°F / 23°C 94% 30.06 in
(1018 mb)
Calm - 1 3/4SM
04:51
Clear
Fog And Mist
75°F / 24°C 73°F / 23°C 94% 30.06 in
(1018 mb)
Calm - 5SM
03:51
Clear
Fog And Mist
79°F / 26°C 75°F / 24°C 89% 30.06 in
(1018 mb)
Calm - 6SM
02:51
Clear
79°F / 26°C 75°F / 24°C 89% 30.06 in
(1018 mb)
SW 5.8 mph
(SW 9 kph)
- 9SM
01:51
Clear
79°F / 26°C 77°F / 25°C 94% 30.06 in
(1018 mb)
SW 4.6 mph
(SW 7 kph)
- 7SM
00:51
Clear
81°F / 27°C 77°F / 25°C 89% 30.06 in
(1018 mb)
S 4.6 mph
(S 7 kph)
- 8SM
Time Weather Temperature Dewpoint Humidity Pressure Winds Precip Visibility


Weather for websites

WeatherForYou.com, LLC is not responsible for any damages or problems caused by this service. Current weather conditions are obtained from the closest station including government and personal stations which may have varying degrees of accuracy. Weather forecasts are derived from the NOAA NDFD. Like all things, this site belongs to Jesus Christ... He just trusts me to maintain it. If you have any questions or comments email webmaster@weatherforyou.com

Copyright © 2014, WeatherForYou.com LLC. All rights reserved.